NIMIQ 2

Last updated on Thu Jul 03 2025 00:02:44 GMT+0000 (Coordinated Universal Time)

1 27632U 02062A 25183.42493898 -.00000066 00000+0 00000+0 0 9997 2 27632 8.6318 60.5156 0005528 35.2340 228.7175 1.00272708 40674
UTC large
Height (km)
Speed (km/s)
/
Latitude / Longitude
Inclination (degrees)
Orbital Period (minutes)
Azimuth
Elevation
Range (km)
Doppler Factor

Next 0 passes for location: London (51.5072 / 0.1276)

Sorry there are no passes over London.